Project,Study,Ord_Occ,Event_Num,Cast_ID,Date_Time_UTC,Date_Time_PST,Lat_Dec,Lon_Dec,Sta_ID,Line,Sta,Depth,Pressure,PrQ,Temp1,Temp1Q,Temp2,Temp2Q,TempAve,Salt1,Salt1Q,Salt1_Corr,Salt2,Salt2Q,Salt2_Corr,SaltAve_Corr,Ox1,Ox1Q,Ox1_CruiseCorr,Ox1_StaCorr,Ox2,Ox2Q,Ox2_CruiseCorr,Ox2_StaCorr,OxAve_StaCorr,Ox1uM,Ox1uM_CruiseCorr,Ox1uM_StaCorr,Ox2uM,Ox2uM_CruiseCorr,Ox2uM_StaCorr,OxAveuM_StaCorr,FluorV,FluorQ,EstChl_CruiseCorr,EstChl_StaCorr,ISUSV,ISUSQ,EstNO3_CruiseCorr,EstNO3_StaCorr,SigThetaTS1,SigThetaTS1Q,SigThetaTS2,SigThetaTS2Q,BAT,XMiss,TransQ,pH,pHQ,SPAR,SPARQ,PAR,PARQ,PoT1,PoT2,DynHt,SVA,OxSat1,OxSat2,BTL_Depth,BTL_Temp,SaltB,OxB,OxBuM,Chl-a,Phaeo,NO3,NO2,NH4,PO4,SIL
CalCOFI,2101RL,075,,2101_075d,03-Feb-2021 05:52:43,02-Feb-2021 21:52:43,36.04773,-122.00997,070.0 055.0,070.0,055.0,9.000,9.066,,12.2708,,12.2708,,12.2708,33.4970,,33.5028,33.4955,,33.4975,33.5002,5.7159,,5.9822,5.8767,5.6322,,5.9800,5.8792,5.8780,248.958,260.8694,256.4030,245.309,277.2976,256.5059,256.4545,0.2662,,1.9331,, ,, , ,25.3707,,25.3696,,1.0449,77.0113,,,,3.5881E+00,,1.0000E-12,,12.2696,12.2697,0.0008,259.730,94.097,92.717,4,,33.4954,5.931,258.74,,,,,,,
CalCOFI,2101RL,075,,2101_075d,03-Feb-2021 05:52:47,02-Feb-2021 21:52:47,36.04774,-122.00998,070.0 055.0,070.0,055.0,10.000,10.074,,12.2674,,12.2678,,12.2676,33.4966,,33.5024,33.4952,,33.4972,33.4998,5.7187,,5.9851,5.8796,5.6264,,5.9738,5.8731,5.8764,249.077,260.9940,256.5254,245.057,277.4299,256.2422,256.3838,0.2580,,1.8659,, ,, , ,25.3711,,25.3700,,1.0461,76.9873,,,,3.6966E+00,,1.0000E-12,,12.2661,12.2665,0.0035,259.721,94.135,92.615,10,,33.4955,5.931,258.76,,,,,,,
CalCOFI,2101RL,075,,2101_075d,03-Feb-2021 05:52:48,02-Feb-2021 21:52:48,36.04776,-122.01000,070.0 055.0,070.0,055.0,11.000,11.081,,12.2691,,12.2690,,12.2691,33.4967,,33.5025,33.4954,,33.4974,33.5000,5.7125,,5.9786,5.8732,5.6083,,5.9546,5.8542,5.8637,248.808,260.7124,256.2488,244.269,277.1308,255.4179,255.8334,0.2691,,1.9568,, ,, , ,25.3709,,25.3698,,1.0427,77.0523,,,,3.6504E+00,,1.0000E-12,,12.2676,12.2676,0.0061,259.767,94.037,92.320,,,,,,,,,,,,
CalCOFI,2101RL,075,,2101_075d,03-Feb-2021 05:52:51,02-Feb-2021 21:52:51,36.04777,-122.01000,070.0 055.0,070.0,055.0,12.000,12.089,,12.2696,,12.2700,,12.2698,33.4969,,33.5027,33.4954,,33.4974,33.5001,5.7083,,5.9742,5.8689,5.6060,,5.9521,5.8518,5.8604,248.623,260.5188,256.0587,244.170,276.9251,255.3144,255.6866,0.2504,,1.8036,, ,, , ,25.3709,,25.3697,,1.0397,77.1115,,,,3.6937E+00,,1.0000E-12,,12.2681,12.2684,0.0087,259.789,93.968,92.284,,,,,,,,,,,,
CalCOFI,2101RL,075,,2101_075d,03-Feb-2021 05:52:54,02-Feb-2021 21:52:54,36.04778,-122.01000,070.0 055.0,070.0,055.0,13.000,13.096,,12.2697,,12.2701,,12.2699,33.4992,,33.5050,33.4975,,33.4995,33.5023,5.6943,,5.9596,5.8546,5.6127,,5.9592,5.8588,5.8567,248.013,259.8802,255.4316,244.460,276.2467,255.6177,255.5247,0.2609,,1.8896,, ,, , ,25.3728,,25.3714,,1.0449,77.0115,,,,3.6947E+00,,1.0000E-12,,12.2680,12.2684,0.0113,259.640,93.739,92.396,,,,,,,,,,,,
CalCOFI,2101RL,075,,2101_075d,03-Feb-2021 05:53:01,02-Feb-2021 21:53:01,36.04779,-122.00999,070.0 055.0,070.0,055.0,14.000,14.104,,12.2654,,12.2656,,12.2655,33.5021,,33.5079,33.5006,,33.5026,33.5053,5.7012,,5.9668,5.8616,5.6167,,5.9635,5.8630,5.8623,248.315,260.1963,255.7420,244.633,276.5826,255.7987,255.7704,0.2669,,1.9388,, ,, , ,25.3758,,25.3746,,1.0398,77.1082,,,,3.6947E+00,,1.0000E-12,,12.2635,12.2638,0.0142,259.377,93.847,92.455,,,,,,,,,,,,
CalCOFI,2101RL,075,,2101_075d,03-Feb-2021 05:53:10,02-Feb-2021 21:53:10,36.04782,-122.00996,070.0 055.0,070.0,055.0,15.000,15.111,,12.2651,,12.2649,,12.2650,33.5023,,33.5081,33.5011,,33.5031,33.5056,5.7005,,5.9660,5.8609,5.6138,,5.9604,5.8599,5.8604,248.283,260.1628,255.7091,244.507,276.5470,255.6669,255.6880,0.2711,,1.9732,, ,, , ,25.3761,,25.3752,,1.0407,77.0928,,,,3.6947E+00,,1.0000E-12,,12.2631,12.2630,0.0170,259.375,93.834,92.406,,,,,,,,,,,,
CalCOFI,2101RL,075,,2101_075d,03-Feb-2021 05:53:16,02-Feb-2021 21:53:16,36.04782,-122.00999,070.0 055.0,070.0,055.0,16.000,16.118,,12.2650,,12.2643,,12.2647,33.5022,,33.5080,33.5015,,33.5035,33.5058,5.6833,,5.9480,5.8433,5.6149,,5.9616,5.8611,5.8522,247.537,259.3819,254.9422,244.555,275.7174,255.7171,255.3297,0.2654,,1.9265,, ,, , ,25.3761,,25.3757,,1.0440,77.0286,,,,3.6947E+00,,1.0000E-12,,12.2629,12.2622,0.0201,259.403,93.552,92.423,,,,,,,,,,,,
CalCOFI,2101RL,075,,2101_075d,03-Feb-2021 05:53:19,02-Feb-2021 21:53:19,36.04784,-122.01000,070.0 055.0,070.0,055.0,17.000,17.126,,12.2591,,12.2586,,12.2589,33.5063,,33.5121,33.5054,,33.5074,33.5098,5.6858,,5.9507,5.8458,5.6073,,5.9535,5.8532,5.8495,247.643,259.4929,255.0512,244.226,275.8353,255.3729,255.2121,0.2738,,1.9953,, ,, , ,25.3803,,25.3797,,1.0392,77.1207,,,,3.6947E+00,,1.0000E-12,,12.2569,12.2563,0.0229,259.023,93.583,92.290,,,,,,,,,,,,
CalCOFI,2101RL,075,,2101_075d,03-Feb-2021 05:53:25,02-Feb-2021 21:53:25,36.04784,-122.01000,070.0 055.0,070.0,055.0,18.000,18.133,,12.2543,,12.2541,,12.2542,33.5089,,33.5147,33.5077,,33.5097,33.5122,5.6735,,5.9378,5.8332,5.5926,,5.9379,5.8378,5.8355,247.108,258.9329,254.5012,243.582,275.2404,254.6992,254.6002,0.2707,,1.9699,, ,, , ,25.3833,,25.3825,,1.0353,77.1951,,,,3.5783E+00,,1.0000E-12,,12.2520,12.2518,0.0264,258.768,93.374,92.040,,,,,,,,,,,,
CalCOFI,2101RL,075,,2101_075d,03-Feb-2021 05:53:29,02-Feb-2021 21:53:29,36.04786,-122.01001,070.0 055.0,070.0,055.0,19.000,19.141,,12.2494,,12.2491,,12.2493,33.5109,,33.5167,33.5096,,33.5116,33.5142,5.6626,,5.9264,5.8220,5.5899,,5.9350,5.8350,5.8285,246.630,258.4325,254.0098,243.464,274.7088,254.5758,254.2928,0.2588,,1.8724,, ,, , ,25.3858,,25.3849,,1.0329,77.2417,,,,3.6845E+00,,1.0000E-12,,12.2470,12.2466,0.0292,258.554,93.185,91.987,,,,,,,,,,,,
CalCOFI,2101RL,075,,2101_075d,03-Feb-2021 05:53:34,02-Feb-2021 21:53:34,36.04786,-122.01002,070.0 055.0,070.0,055.0,20.000,20.148,,12.2431,,12.2420,,12.2426,33.5131,,33.5189,33.5123,,33.5143,33.5166,5.6462,,5.9092,5.8052,5.5718,,5.9158,5.8161,5.8107,245.916,257.6851,253.2758,242.677,273.9148,253.7525,253.5142,0.2621,,1.8995,, ,, , ,25.3888,,25.3883,,1.0294,77.3103,,,,3.6947E+00,,1.0000E-12,,12.2405,12.2394,0.0318,258.295,92.904,91.678,,,,,,,,,,,,
CalCOFI,2101RL,075,,2101_075d,03-Feb-2021 05:53:37,02-Feb-2021 21:53:37,36.04787,-122.01003,070.0 055.0,070.0,055.0,21.000,21.156,,12.2384,,12.2388,,12.2386,33.5149,,33.5207,33.5135,,33.5155,33.5181,5.6382,,5.9008,5.7970,5.5509,,5.8936,5.7942,5.7956,245.567,257.3197,252.9171,241.765,273.5268,252.7985,252.8578,0.2513,,1.8110,, ,, , ,25.3911,,25.3899,,1.0289,77.3191,,,,3.6947E+00,,1.0000E-12,,12.2357,12.2361,0.0344,258.100,92.765,91.328,21,,33.5157,5.759,251.26,,,,,,,
CalCOFI,2101RL,075,,2101_075d,03-Feb-2021 05:53:40,02-Feb-2021 21:53:40,36.04788,-122.01004,070.0 055.0,070.0,055.0,22.000,22.163,,12.2362,,12.2362,,12.2362,33.5157,,33.5215,33.5144,,33.5164,33.5190,5.6431,,5.9060,5.8020,5.5381,,5.8800,5.7809,5.7915,245.778,257.5406,253.1340,241.207,273.7614,252.2148,252.6744,0.2689,,1.9552,, ,, , ,25.3921,,25.3911,,1.0252,77.3917,,,,3.6947E+00,,1.0000E-12,,12.2333,12.2334,0.0370,258.028,92.841,91.113,,,,,,,,,,,,
CalCOFI,2101RL,075,,2101_075d,03-Feb-2021 05:53:44,02-Feb-2021 21:53:44,36.04788,-122.01004,070.0 055.0,070.0,055.0,23.000,23.171,,12.2308,,12.2276,,12.2292,33.5171,,33.5229,33.5165,,33.5185,33.5207,5.5806,,5.8406,5.7379,5.5096,,5.8497,5.7511,5.7445,243.058,254.6933,250.3378,239.963,270.7367,250.9135,250.6257,0.2541,,1.8339,, ,, , ,25.3943,,25.3944,,1.0256,77.3829,,,,3.6947E+00,,1.0000E-12,,12.2278,12.2246,0.0396,257.852,91.804,90.629,,,,,,,,,,,,
CalCOFI,2101RL,075,,2101_075d,03-Feb-2021 05:53:46,02-Feb-2021 21:53:46,36.04788,-122.01004,070.0 055.0,070.0,055.0,24.000,24.178,,12.2049,,12.2042,,12.2046,33.5242,,33.5300,33.5230,,33.5250,33.5275,5.5498,,5.8083,5.7062,5.4658,,5.8032,5.7053,5.7058,241.712,253.2843,248.9541,238.056,269.2399,248.9185,248.9363,0.2355,,1.6815,, ,, , ,25.4047,,25.4040,,1.0037,77.8077,,,,3.6947E+00,,1.0000E-12,,12.2018,12.2011,0.0422,256.883,91.251,89.869,,,,,,,,,,,,
CalCOFI,2101RL,075,,2101_075d,03-Feb-2021 05:53:49,02-Feb-2021 21:53:49,36.04788,-122.01004,070.0 055.0,070.0,055.0,25.000,25.186,,12.1903,,12.1874,,12.1889,33.5280,,33.5338,33.5275,,33.5295,33.5317,5.4771,,5.7322,5.6316,5.4164,,5.7508,5.6537,5.6427,238.545,249.9691,245.6985,235.900,265.7182,246.6632,246.1809,0.2235,,1.5832,, ,, , ,25.4105,,25.4107,,0.9845,78.1814,,,,3.6947E+00,,1.0000E-12,,12.1870,12.1841,0.0448,256.355,90.030,89.026,,,,,,,,,,,,
CalCOFI,2101RL,075,,2101_075d,03-Feb-2021 05:53:52,02-Feb-2021 21:53:52,36.04788,-122.01004,070.0 055.0,070.0,055.0,26.000,26.193,,12.1715,,12.1679,,12.1697,33.5319,,33.5377,33.5310,,33.5330,33.5354,5.3326,,5.5810,5.4833,5.2890,,5.6154,5.5207,5.5020,232.250,243.3795,239.2272,230.350,258.7180,240.8574,240.0423,0.2257,,1.6012,, ,, , ,25.4171,,25.4171,,0.9760,78.3490,,,,3.6561E+00,,1.0000E-12,,12.1681,12.1645,0.0474,255.754,87.623,86.899,,,,,,,,,,,,
CalCOFI,2101RL,075,,2101_075d,03-Feb-2021 05:53:54,02-Feb-2021 21:53:54,36.04788,-122.01004,070.0 055.0,070.0,055.0,27.000,27.201,,12.1083,,12.1054,,12.1069,33.5398,,33.5456,33.5387,,33.5407,33.5432,5.2352,,5.4791,5.3833,5.1772,,5.4967,5.4039,5.3936,228.006,238.9369,234.8644,225.478,253.9986,235.7608,235.3126,0.1838,,1.2579,, ,, , ,25.4353,,25.4350,,0.9524,78.8121,,,,3.6925E+00,,1.0000E-12,,12.1048,12.1019,0.0500,254.048,85.914,84.956,,,,,,,,,,,,
CalCOFI,2101RL,075,,2101_075d,03-Feb-2021 05:53:57,02-Feb-2021 21:53:57,36.04789,-122.01004,070.0 055.0,070.0,055.0,28.000,28.208,,12.0335,,12.0302,,12.0319,33.5470,,33.5528,33.5457,,33.5477,33.5503,5.1773,,5.4185,5.3239,5.1167,,5.4324,5.3407,5.3323,225.478,236.2906,232.2656,222.841,251.1875,233.0023,232.6340,0.1236,,0.7646,, ,, , ,25.4550,,25.4547,,0.9097,79.6580,,,,3.6947E+00,,1.0000E-12,,12.0299,12.0266,0.0525,252.194,84.833,83.835,,,,,,,,,,,,
CalCOFI,2101RL,075,,2101_075d,03-Feb-2021 05:53:59,02-Feb-2021 21:53:59,36.04790,-122.01004,070.0 055.0,070.0,055.0,29.000,29.216,,12.0177,,12.0179,,12.0178,33.5474,,33.5532,33.5460,,33.5480,33.5506,5.1731,,5.4141,5.3195,5.1063,,5.4214,5.3298,5.3247,225.295,236.0990,232.0775,222.385,250.9840,232.5252,232.3014,0.1098,,0.6515,, ,, , ,25.4584,,25.4572,,0.8572,80.7109,,,,3.6947E+00,,1.0000E-12,,12.0140,12.0141,0.0551,251.900,84.737,83.642,,,,,,,,,,,,
CalCOFI,2101RL,075,,2101_075d,03-Feb-2021 05:54:02,02-Feb-2021 21:54:02,36.04790,-122.01006,070.0 055.0,070.0,055.0,30.000,30.223,,12.0126,,12.0130,,12.0128,33.5482,,33.5540,33.5467,,33.5487,33.5514,5.1563,,5.3965,5.3023,5.0848,,5.3986,5.3074,5.3049,224.563,235.3327,231.3250,221.451,250.1700,231.5482,231.4366,0.0963,,0.5409,, ,, , ,25.4600,,25.4587,,0.8377,81.1058,,,,3.6947E+00,,1.0000E-12,,12.0088,12.0091,0.0576,251.772,84.453,83.283,,,,,,,,,,,,
CalCOFI,2101RL,075,,2101_075d,03-Feb-2021 05:54:04,02-Feb-2021 21:54:04,36.04788,-122.01002,070.0 055.0,070.0,055.0,31.000,31.231,,12.0108,,12.0110,,12.0109,33.5489,,33.5547,33.5476,,33.5496,33.5522,5.1441,,5.3837,5.2898,5.0757,,5.3889,5.2979,5.2939,224.030,234.7748,230.7771,221.053,249.5773,231.1319,230.9545,0.0984,,0.5581,, ,, , ,25.4609,,25.4598,,0.8264,81.3341,,,,3.6947E+00,,1.0000E-12,,12.0068,12.0071,0.0601,251.711,84.250,83.130,,,,,,,,,,,,
CalCOFI,2101RL,075,,2101_075d,03-Feb-2021 05:54:06,02-Feb-2021 21:54:06,36.04788,-122.01002,070.0 055.0,070.0,055.0,32.000,32.238,,11.9958,,11.9954,,11.9956,33.5499,,33.5557,33.5485,,33.5505,33.5531,5.1631,,5.4036,5.3093,5.0936,,5.4079,5.3165,5.3129,224.857,235.6405,231.6272,221.830,250.4969,231.9447,231.7860,0.0922,,0.5073,, ,, , ,25.4645,,25.4635,,0.8230,81.4045,,,,3.6947E+00,,1.0000E-12,,11.9917,11.9913,0.0626,251.394,84.535,83.396,,,,,,,,,,,,
CalCOFI,2101RL,075,,2101_075d,03-Feb-2021 05:54:08,02-Feb-2021 21:54:08,36.04786,-122.01002,070.0 055.0,070.0,055.0,33.000,33.246,,11.9724,,11.9725,,11.9725,33.5502,,33.5560,33.5487,,33.5507,33.5534,5.1820,,5.4234,5.3287,5.1044,,5.4194,5.3278,5.3283,225.679,236.5010,232.4723,222.299,251.4110,232.4353,232.4538,0.0958,,0.5368,, ,, , ,25.4691,,25.4680,,0.8267,81.3281,,,,3.6947E+00,,1.0000E-12,,11.9682,11.9682,0.0652,250.978,84.803,83.533,,,,,,,,,,,,
CalCOFI,2101RL,075,,2101_075d,03-Feb-2021 05:54:10,02-Feb-2021 21:54:10,36.04786,-122.01002,070.0 055.0,070.0,055.0,34.000,34.253,,11.9616,,11.9614,,11.9615,33.5507,,33.5565,33.5494,,33.5514,33.5540,5.1603,,5.4007,5.3064,5.0803,,5.3938,5.3027,5.3046,224.734,235.5118,231.5008,221.250,250.3601,231.3379,231.4194,0.0947,,0.5278,, ,, , ,25.4716,,25.4706,,0.8234,81.3958,,,,3.5534E+00,,1.0000E-12,,11.9573,11.9571,0.0677,250.770,84.429,83.119,,,,,,,,,,,,
CalCOFI,2101RL,075,,2101_075d,03-Feb-2021 05:54:13,02-Feb-2021 21:54:13,36.04786,-122.01002,070.0 055.0,070.0,055.0,35.000,35.261,,11.9545,,11.9541,,11.9543,33.5529,,33.5587,33.5515,,33.5535,33.5561,5.0745,,5.3109,5.2183,4.9986,,5.3070,5.2173,5.2178,220.999,231.6020,227.6612,217.693,246.2068,227.6170,227.6391,0.0927,,0.5114,, ,, , ,25.4747,,25.4736,,0.8296,81.2681,,,,3.6978E+00,,1.0000E-12,,11.9500,11.9496,0.0702,250.501,83.015,81.772,,,,,,,,,,,,
CalCOFI,2101RL,075,,2101_075d,03-Feb-2021 05:54:14,02-Feb-2021 21:54:14,36.04786,-122.01002,070.0 055.0,070.0,055.0,36.000,36.268,,11.9400,,11.9398,,11.9399,33.5579,,33.5637,33.5566,,33.5586,33.5612,5.0525,,5.2878,5.1957,4.9734,,5.2802,5.1910,5.1934,220.039,230.5970,226.6743,216.592,245.1392,226.4652,226.5698,0.0906,,0.4942,, ,, , ,25.4813,,25.4803,,0.8266,81.3307,,,,3.6947E+00,,1.0000E-12,,11.9354,11.9352,0.0728,249.893,82.633,81.337,,,,,,,,,,,,
CalCOFI,2101RL,075,,2101_075d,03-Feb-2021 05:54:17,02-Feb-2021 21:54:17,36.04786,-122.01007,070.0 055.0,070.0,055.0,37.000,37.276,,11.9277,,11.9270,,11.9274,33.5612,,33.5670,33.5599,,33.5619,33.5645,4.9936,,5.2262,5.1353,4.9281,,5.2321,5.1437,5.1395,217.473,227.9109,224.0365,214.618,242.2858,224.4002,224.2184,0.0873,,0.4671,, ,, , ,25.4862,,25.4853,,0.8246,81.3707,,,,3.6947E+00,,1.0000E-12,,11.9230,11.9222,0.0753,249.456,81.650,80.576,,,,,,,,,,,,
CalCOFI,2101RL,075,,2101_075d,03-Feb-2021 05:54:19,02-Feb-2021 21:54:19,36.04786,-122.01010,070.0 055.0,070.0,055.0,38.000,38.283,,11.9125,,11.9116,,11.9121,33.5637,,33.5695,33.5625,,33.5645,33.5670,4.9177,,5.1468,5.0574,4.8635,,5.1635,5.0762,5.0668,214.167,224.4502,220.6379,211.805,238.6095,221.4576,221.0478,0.0809,,0.4147,, ,, , ,25.4910,,25.4902,,0.8178,81.5090,,,,3.6947E+00,,1.0000E-12,,11.9077,11.9068,0.0778,249.019,80.385,79.496,,,,,,,,,,,,
CalCOFI,2101RL,075,,2101_075d,03-Feb-2021 05:54:20,02-Feb-2021 21:54:20,36.04790,-122.01007,070.0 055.0,070.0,055.0,39.000,39.291,,11.8844,,11.8839,,11.8842,33.5680,,33.5738,33.5667,,33.5687,33.5713,4.9078,,5.1364,5.0472,4.8388,,5.1373,5.0504,5.0488,213.730,223.9928,220.1887,210.729,238.1235,220.3320,220.2604,0.0779,,0.3901,, ,, , ,25.4996,,25.4987,,0.8129,81.6104,,,,3.6947E+00,,1.0000E-12,,11.8794,11.8789,0.0803,248.222,80.176,79.049,,,,,,,,,,,,
CalCOFI,2101RL,075,,2101_075d,03-Feb-2021 05:54:21,02-Feb-2021 21:54:21,36.04792,-122.01006,070.0 055.0,070.0,055.0,40.000,40.299,,11.8760,,11.8757,,11.8759,33.5716,,33.5774,33.5702,,33.5722,33.5748,4.8927,,5.1206,5.0317,4.8300,,5.1279,5.0412,5.0365,213.075,223.3071,219.5154,210.344,237.3951,219.9292,219.7223,0.0726,,0.3467,, ,, , ,25.5040,,25.5030,,0.8065,81.7390,,,,3.4363E+00,,1.0000E-12,,11.8708,11.8706,0.0828,247.834,79.918,78.893,,,,,,,,,,,,
CalCOFI,2101RL,075,,2101_075d,03-Feb-2021 05:54:23,02-Feb-2021 21:54:23,36.04793,-122.01003,070.0 055.0,070.0,055.0,41.000,41.306,,11.8711,,11.8711,,11.8711,33.5731,,33.5789,33.5717,,33.5737,33.5763,4.9020,,5.1303,5.0413,4.8246,,5.1222,5.0356,5.0385,213.479,223.7300,219.9307,210.107,237.8444,219.6813,219.8060,0.0725,,0.3459,, ,, , ,25.5061,,25.5050,,0.8053,81.7652,,,,3.4107E+00,,1.0000E-12,,11.8659,11.8658,0.0853,247.658,80.063,78.797,,,,,,,,,,,,
CalCOFI,2101RL,075,,2101_075d,03-Feb-2021 05:54:27,02-Feb-2021 21:54:27,36.04796,-122.00998,070.0 055.0,070.0,055.0,42.000,42.314,,11.8670,,11.8672,,11.8671,33.5746,,33.5804,33.5732,,33.5752,33.5778,4.8663,,5.0930,5.0046,4.7927,,5.0883,5.0022,5.0034,211.924,222.1022,218.3321,208.717,236.1152,218.2272,218.2797,0.0739,,0.3573,, ,, , ,25.5081,,25.5070,,0.8015,81.8429,,,,3.2982E+00,,1.0000E-12,,11.8617,11.8619,0.0878,247.496,79.474,78.271,,,,,,,,,,,,
CalCOFI,2101RL,075,,2101_075d,03-Feb-2021 05:54:29,02-Feb-2021 21:54:29,36.04796,-122.01000,070.0 055.0,070.0,055.0,43.000,43.321,,11.8611,,11.8606,,11.8609,33.5788,,33.5846,33.5776,,33.5796,33.5821,4.8392,,5.0646,4.9768,4.7822,,5.0772,4.9913,4.9841,210.744,220.8670,217.1191,208.260,234.8030,217.7492,217.4342,0.0676,,0.3057,, ,, , ,25.5125,,25.5117,,0.7979,81.9164,,,,3.1608E+00,,1.0000E-12,,11.8556,11.8551,0.0903,247.103,79.023,78.091,,,,,,,,,,,,
CalCOFI,2101RL,075,,2101_075d,03-Feb-2021 05:54:30,02-Feb-2021 21:54:30,36.04796,-122.01001,070.0 055.0,070.0,055.0,44.000,44.329,,11.8553,,11.8553,,11.8553,33.5817,,33.5875,33.5804,,33.5824,33.5850,4.8323,,5.0574,4.9697,4.7669,,5.0609,4.9753,4.9725,210.442,220.5509,216.8087,207.591,234.4672,217.0494,216.9291,0.0684,,0.3123,, ,, , ,25.5158,,25.5149,,0.8060,81.7506,,,,3.6305E+00,,1.0000E-12,,11.8497,11.8497,0.0928,246.807,78.902,77.833,,,,,,,,,,,,
CalCOFI,2101RL,075,,2101_075d,03-Feb-2021 05:54:31,02-Feb-2021 21:54:31,36.04796,-122.01002,070.0 055.0,070.0,055.0,45.000,45.336,,11.8514,,11.8515,,11.8515,33.5833,,33.5891,33.5820,,33.5840,33.5866,4.8201,,5.0446,4.9572,4.7537,,5.0469,4.9615,4.9594,209.908,219.9919,216.2597,207.017,233.8734,216.4489,216.3543,0.0643,,0.2787,, ,, , ,25.5178,,25.5168,,0.8008,81.8572,,,,3.5909E+00,,1.0000E-12,,11.8456,11.8458,0.0952,246.645,78.696,77.612,,,,,,,,,,,,
CalCOFI,2101RL,075,,2101_075d,03-Feb-2021 05:54:33,02-Feb-2021 21:54:33,36.04795,-122.01005,070.0 055.0,070.0,055.0,46.000,46.344,,11.8495,,11.8499,,11.8497,33.5849,,33.5907,33.5834,,33.5854,33.5881,4.8102,,5.0343,4.9470,4.7351,,5.0271,4.9421,4.9446,209.480,219.5439,215.8197,206.206,233.3974,215.6005,215.7101,0.0668,,0.2992,, ,, , ,25.5195,,25.5182,,0.8004,81.8647,,,,3.6965E+00,,1.0000E-12,,11.8437,11.8440,0.0977,246.511,78.534,77.306,,,,,,,,,,,,
CalCOFI,2101RL,075,,2101_075d,03-Feb-2021 05:54:35,02-Feb-2021 21:54:35,36.04792,-122.01010,070.0 055.0,070.0,055.0,47.000,47.352,,11.8345,,11.8328,,11.8337,33.5873,,33.5931,33.5861,,33.5881,33.5906,4.7694,,4.9916,4.9051,4.7069,,4.9972,4.9126,4.9089,207.698,217.6785,213.9878,204.977,231.4158,214.3149,214.1514,0.0644,,0.2795,, ,, , ,25.5241,,25.5235,,0.8580,80.7344,,,,3.5075E+00,,1.0000E-12,,11.8286,11.8268,0.1002,246.092,77.843,76.820,,,,,,,,,,,,
CalCOFI,2101RL,075,,2101_075d,03-Feb-2021 05:54:38,02-Feb-2021 21:54:38,36.04792,-122.01010,070.0 055.0,070.0,055.0,48.000,48.359,,11.7827,,11.7810,,11.7819,33.5929,,33.5987,33.5917,,33.5937,33.5962,4.6691,,4.8866,4.8022,4.6188,,4.9036,4.8206,4.8114,203.330,213.1060,209.4975,201.137,226.5586,210.2979,209.8977,0.0602,,0.2451,, ,, , ,25.5382,,25.5376,,0.7881,82.1117,,,,3.7138E+00,,1.0000E-12,,11.7766,11.7749,0.1027,244.779,76.127,75.302,,,,,,,,,,,,
CalCOFI,2101RL,075,,2101_075d,03-Feb-2021 05:54:40,02-Feb-2021 21:54:40,36.04792,-122.01011,070.0 055.0,070.0,055.0,49.000,49.367,,11.7249,,11.7229,,11.7239,33.6014,,33.6072,33.6004,,33.6024,33.6048,4.6094,,4.8241,4.7409,4.5465,,4.8268,4.7451,4.7430,200.723,210.3770,206.8175,197.988,223.6595,207.0037,206.9106,0.0580,,0.2271,, ,, , ,25.5556,,25.5551,,0.7906,82.0671,,,,3.6947E+00,,1.0000E-12,,11.7187,11.7167,0.1051,243.146,75.064,74.038,,,,,,,,,,,,
CalCOFI,2101RL,075,,2101_075d,03-Feb-2021 05:54:41,02-Feb-2021 21:54:41,36.04792,-122.01012,070.0 055.0,070.0,055.0,50.000,50.374,,11.6927,,11.6921,,11.6924,33.6057,,33.6115,33.6042,,33.6062,33.6089,4.5994,,4.8136,4.7306,4.5339,,4.8135,4.7319,4.7313,200.291,209.9248,206.3734,197.438,223.1791,206.4284,206.4009,0.0585,,0.2312,, ,, , ,25.5649,,25.5639,,0.7893,82.0926,,,,3.6947E+00,,1.0000E-12,,11.6863,11.6858,0.1076,242.281,74.854,73.786,50,,33.6268,4.594,200.43,,,,,,,
CalCOFI,2101RL,075,,2101_075d,03-Feb-2021 05:54:42,02-Feb-2021 21:54:42,36.04792,-122.01012,070.0 055.0,070.0,055.0,51.000,51.382,,11.6762,,11.6757,,11.6760,33.6075,,33.6133,33.6061,,33.6081,33.6107,4.5972,,4.8113,4.7284,4.5227,,4.8016,4.7202,4.7243,200.193,209.8222,206.2727,196.949,223.0702,205.9168,206.0948,0.0565,,0.2148,, ,, , ,25.5694,,25.5684,,0.7896,82.0866,,,,3.6947E+00,,1.0000E-12,,11.6697,11.6693,0.1100,241.878,74.793,73.580,,,,,,,,,,,,
CalCOFI,2101RL,075,,2101_075d,03-Feb-2021 05:54:45,02-Feb-2021 21:54:45,36.04792,-122.01012,070.0 055.0,070.0,055.0,52.000,52.390,,11.6635,,11.6630,,11.6633,33.6093,,33.6151,33.6078,,33.6098,33.6125,4.6021,,4.8165,4.7334,4.5197,,4.7984,4.7171,4.7253,200.403,210.0421,206.4886,196.816,223.3037,205.7777,206.1332,0.0575,,0.2230,, ,, , ,25.5732,,25.5720,,0.8143,81.5866,,,,3.6947E+00,,1.0000E-12,,11.6569,11.6564,0.1125,241.543,74.852,73.511,,,,,,,,,,,,
CalCOFI,2101RL,075,,2101_075d,03-Feb-2021 05:54:47,02-Feb-2021 21:54:47,36.04792,-122.01012,070.0 055.0,070.0,055.0,53.000,53.397,,11.6562,,11.6559,,11.6561,33.6103,,33.6161,33.6088,,33.6108,33.6135,4.5483,,4.7602,4.6782,4.4916,,4.7685,4.6877,4.6830,198.063,207.5925,204.0831,195.591,220.7016,204.4962,204.2897,0.0575,,0.2230,, ,, , ,25.5753,,25.5742,,0.7930,82.0176,,,,3.6947E+00,,1.0000E-12,,11.6495,11.6492,0.1149,241.362,73.968,73.043,,,,,,,,,,,,
CalCOFI,2101RL,075,,2101_075d,03-Feb-2021 05:54:49,02-Feb-2021 21:54:49,36.04792,-122.01012,070.0 055.0,070.0,055.0,54.000,54.405,,11.6465,,11.6462,,11.6464,33.6114,,33.6172,33.6101,,33.6121,33.6147,4.5239,,4.7346,4.6531,4.4611,,4.7361,4.6559,4.6545,197.000,206.4798,202.9903,194.264,219.5195,203.1081,203.0492,0.0546,,0.1992,, ,, , ,25.5780,,25.5770,,0.8078,81.7193,,,,3.6947E+00,,1.0000E-12,,11.6397,11.6394,0.1173,241.132,73.556,72.533,,,,,,,,,,,,
CalCOFI,2101RL,075,,2101_075d,03-Feb-2021 05:54:50,02-Feb-2021 21:54:50,36.04792,-122.01012,070.0 055.0,070.0,055.0,55.000,55.413,,11.6245,,11.6238,,11.6242,33.6141,,33.6199,33.6129,,33.6149,33.6174,4.5044,,4.7142,4.6331,4.4450,,4.7190,4.6390,4.6361,196.149,205.5890,202.1155,193.563,218.5732,202.3748,202.2452,0.0555,,0.2066,, ,, , ,25.5841,,25.5833,,0.8158,81.5574,,,,3.6947E+00,,1.0000E-12,,11.6176,11.6169,0.1198,240.569,73.206,72.239,,,,,,,,,,,,
CalCOFI,2101RL,075,,2101_075d,03-Feb-2021 05:54:52,02-Feb-2021 21:54:52,36.04792,-122.01012,070.0 055.0,070.0,055.0,56.000,56.420,,11.6050,,11.6046,,11.6048,33.6165,,33.6223,33.6150,,33.6170,33.6197,4.4988,,4.7083,4.6274,4.4328,,4.7061,4.6263,4.6269,195.902,205.3304,201.8616,193.031,218.2985,201.8183,201.8400,0.0548,,0.2008,, ,, , ,25.5896,,25.5886,,0.7958,81.9630,,,,3.6947E+00,,1.0000E-12,,11.5980,11.5976,0.1222,240.073,73.085,72.013,,,,,,,,,,,,
CalCOFI,2101RL,075,,2101_075d,03-Feb-2021 05:54:54,02-Feb-2021 21:54:54,36.04792,-122.01010,070.0 055.0,070.0,055.0,57.000,57.428,,11.5895,,11.5883,,11.5889,33.6189,,33.6247,33.6174,,33.6194,33.6221,4.4409,,4.6477,4.5679,4.3827,,4.6529,4.5740,4.5710,193.383,202.6935,199.2720,190.849,215.4973,199.5357,199.4039,0.0519,,0.1771,, ,, , ,25.5944,,25.5934,,0.9226,79.4722,,,,3.6947E+00,,1.0000E-12,,11.5823,11.5812,0.1246,239.641,72.123,71.176,,,,,,,,,,,,
CalCOFI,2101RL,075,,2101_075d,03-Feb-2021 05:54:56,02-Feb-2021 21:54:56,36.04792,-122.01004,070.0 055.0,070.0,055.0,58.000,58.435,,11.5577,,11.5513,,11.5545,33.6230,,33.6288,33.6224,,33.6244,33.6266,4.2228,,4.4195,4.3440,4.2110,,4.4705,4.3946,4.3693,183.884,192.7500,189.5071,183.370,204.9343,191.7120,190.6096,0.0524,,0.1812,, ,, , ,25.6035,,25.6042,,0.7875,82.1337,,,,3.6947E+00,,1.0000E-12,,11.5504,11.5440,0.1270,238.798,68.537,68.337,,,,,,,,,,,,
CalCOFI,2101RL,075,,2101_075d,03-Feb-2021 05:54:59,02-Feb-2021 21:54:59,36.04793,-122.00999,070.0 055.0,070.0,055.0,59.000,59.443,,11.4273,,11.4139,,11.4206,33.6455,,33.6513,33.6472,,33.6492,33.6503,3.7663,,3.9417,3.8754,3.8684,,4.1066,4.0367,3.9561,163.996,171.9312,169.0623,168.441,182.8185,176.0948,172.5786,0.0485,,0.1492,, ,, , ,25.6449,,25.6487,,0.7899,82.0815,,,,3.6947E+00,,1.0000E-12,,11.4200,11.4066,0.1294,234.874,60.968,62.603,,,,,,,,,,,,